"Pseudo-MPEC" for P112j5X

Created 2020 Jun 30 19:07:15 UT using Find_Orb

Click here for an explanation of pseudo-MPECs

 
 Astrometry: 
     P112j5X  C2020 06 2603`m'OJ9g;\!_Jx:SYdlY8Fo[%^piLV]-_aFMAstrometry\N;-3F51
     P112j5X  C2020 06 26GZ6xTr1Fs''x?whk-%xmfxredacted;@B[H7BNJi.:I`nvr;oSvGF51
     P112j5X  C2020 06 26rN5d[n(4oH0*J!Lyoa@Hi:t*/M1E.Fcjor]OunYyo_xuT:prb_g\F51
     P112j5X  C2020 06 29CPc#a.2bLVWR(:[Wb:W2y/clicka-IW%1pFG9wdq8M)y91+ALfyhF51
     P112j5X  C2020 06 29Z0Y?@isyDF7wf.59k6l^GwMcYpCipV.2vQ`v,^v.usN^bB)x4hfnF51
     P112j5X  C2020 06 29'O'whereMJH]244dNdp2`Xb3,Fu(ONq=Nfor]e/fF-9pUQ)ieGrOF51
     P112j5X  C2020 06 30=*iexplanationul[8QdB%59-r%=^%JRvY)YHtQw%@rKv-dMK`S`F51
     P112j5X  C2020 06 30y`XX#q^'#4``G=.'7_$pYvBU)`(UF5oyP(XSyp5V^u+8$2*=6vfBF51
     P112j5X  C2020 06 30+I(gX(#N(SV``/0u?nK5S=9eG0U`uDkD'XW/5+kB;+)$;XCc)X!KF51

Station data:
(F51) Pan-STARRS 1, Haleakala  (N20.707235 W156.255910)  US/Hawaii.
   Observers N. Primak, A. Schultz, S. Watters, J. Thiel, T. Goggia. Measurer
   PS1 Science Consortium. 1.8-m Ritchey-Chrétien + CCD.

Orbital elements:  P112j5X
   Perihelion 2020 Jul 1.339259 +/- 0.167 TT =  8:08:32 (JD 2459031.839259)
Epoch 2020 Jun 30.0 TT = JDT 2459030.5   Earth MOID: 0.1605   Ma: 0.0618
M 359.64810950 +/- 0.07             (J2000 ecliptic)          AutoNEOCP
n   0.26275010 +/- 0.0274           Peri.   18.36941 +/- 0.17
a   2.41420485 +/- 0.168            Node   269.47697 +/- 0.32
e   0.5125945 +/- 0.031             Incl.    1.93972 +/- 0.07
P   3.75                   H 23.4   G  0.15   U 10.3  
q 1.17669664 +/- 0.00747    Q 3.65171305 +/- 0.351
From 9 observations 2020 June 26-30; mean residual 0".08
Residuals in arcseconds: 
200626 F51  .07-  .04-    200629 F51  .04-  .01-    200630 F51  .02-  .01+    
200626 F51  .03-  .14-    200629 F51  .09+  .07+    200630 F51  .06+  .03-    
200626 F51  .10+  .19+    200629 F51  .04-  .09-    200630 F51  .05-  .05+    

Ephemerides (geocentric):
Date (UTC) HH   RA              Dec         delta   r     elong  mag " sig PA
---- -- -- --  -------------   -----------  ------ ------ -----  --- ---- ---
2020 06 30 19  21 54 49.301   -09 22 28.74  .22355 1.1767 131.5 22.1 1.15   4
2020 06 30 20  21 54 57.784   -09 21 17.42  .22354 1.1767 131.5 22.1 1.17   5
2020 06 30 21  21 55 06.259   -09 20 06.12  .22354 1.1767 131.5 22.1 1.18   5
2020 06 30 22  21 55 14.726   -09 18 54.86  .22354 1.1767 131.5 22.1 1.20   6
2020 06 30 23  21 55 23.184   -09 17 43.63  .22354 1.1767 131.5 22.1 1.22   7
2020 07 01 00  21 55 31.635   -09 16 32.44  .22353 1.1767 131.5 22.1 1.24   7
2020 07 01 01  21 55 40.077   -09 15 21.27  .22353 1.1767 131.5 22.1 1.26   8
2020 07 01 02  21 55 48.511   -09 14 10.14  .22353 1.1767 131.5 22.1 1.28   8
2020 07 01 03  21 55 56.937   -09 12 59.04  .22353 1.1767 131.5 22.1 1.30   9
2020 07 01 04  21 56 05.355   -09 11 47.98  .22352 1.1767 131.5 22.1 1.32   9
2020 07 01 05  21 56 13.764   -09 10 36.94  .22352 1.1767 131.5 22.1 1.34  10
2020 07 01 06  21 56 22.165   -09 09 25.95  .22352 1.1767 131.5 22.1 1.36  10
2020 07 01 07  21 56 30.558   -09 08 14.98  .22352 1.1767 131.5 22.1 1.38  11
2020 07 01 08  21 56 38.943   -09 07 04.05  .22352 1.1767 131.5 22.1 1.40  12
2020 07 01 09  21 56 47.319   -09 05 53.15  .22352 1.1767 131.5 22.1 1.42  12
2020 07 01 10  21 56 55.688   -09 04 42.28  .22352 1.1767 131.5 22.1 1.45  13
2020 07 01 11  21 57 04.048   -09 03 31.45  .22352 1.1767 131.5 22.1 1.47  13
2020 07 01 12  21 57 12.400   -09 02 20.66  .22351 1.1767 131.5 22.1 1.49  14
2020 07 01 13  21 57 20.743   -09 01 09.90  .22351 1.1767 131.5 22.1 1.52  14
2020 07 01 14  21 57 29.078   -08 59 59.17  .22351 1.1767 131.5 22.1 1.54  15
2020 07 01 15  21 57 37.405   -08 58 48.48  .22351 1.1767 131.5 22.1 1.57  15
2020 07 01 16  21 57 45.724   -08 57 37.82  .22351 1.1767 131.5 22.1 1.59  15
2020 07 01 17  21 57 54.034   -08 56 27.20  .22351 1.1767 131.5 22.1 1.62  16
2020 07 01 18  21 58 02.336   -08 55 16.61  .22351 1.1767 131.5 22.1 1.65  16
2020 07 01 19  21 58 10.630   -08 54 06.06  .22351 1.1767 131.5 22.1 1.67  17
2020 07 01 20  21 58 18.915   -08 52 55.54  .22351 1.1767 131.5 22.1 1.70  17
2020 07 01 21  21 58 27.192   -08 51 45.06  .22351 1.1767 131.5 22.1 1.73  18
2020 07 01 22  21 58 35.461   -08 50 34.62  .22352 1.1767 131.5 22.1 1.75  18
2020 07 01 23  21 58 43.722   -08 49 24.21  .22352 1.1767 131.5 22.1 1.78  18
2020 07 02 00  21 58 51.974   -08 48 13.84  .22352 1.1767 131.5 22.1 1.81  19
2020 07 02 01  21 59 00.217   -08 47 03.50  .22352 1.1767 131.5 22.1 1.84  19
2020 07 02 02  21 59 08.453   -08 45 53.21  .22352 1.1767 131.5 22.1 1.87  20
2020 07 02 03  21 59 16.680   -08 44 42.94  .22352 1.1767 131.5 22.1 1.90  20
2020 07 02 04  21 59 24.899   -08 43 32.72  .22352 1.1767 131.5 22.1 1.93  20
2020 07 02 05  21 59 33.109   -08 42 22.53  .22353 1.1767 131.5 22.1 1.96  21
2020 07 02 06  21 59 41.311   -08 41 12.38  .22353 1.1767 131.5 22.1 1.99  21
2020 07 02 07  21 59 49.504   -08 40 02.27  .22353 1.1767 131.5 22.1 2.02  21
2020 07 02 08  21 59 57.689   -08 38 52.19  .22353 1.1768 131.5 22.1 2.06  22
2020 07 02 09  22 00 05.866   -08 37 42.15  .22353 1.1768 131.5 22.1 2.09  22
2020 07 02 10  22 00 14.034   -08 36 32.15  .22354 1.1768 131.5 22.1 2.12  22
2020 07 02 11  22 00 22.194   -08 35 22.19  .22354 1.1768 131.5 22.1 2.15  23
2020 07 02 12  22 00 30.346   -08 34 12.27  .22354 1.1768 131.5 22.1 2.19  23
2020 07 02 13  22 00 38.489   -08 33 02.38  .22355 1.1768 131.5 22.1 2.22  23
2020 07 02 14  22 00 46.623   -08 31 52.54  .22355 1.1768 131.5 22.1 2.26  23
2020 07 02 15  22 00 54.749   -08 30 42.73  .22355 1.1768 131.5 22.1 2.29  24
2020 07 02 16  22 01 02.867   -08 29 32.96  .22356 1.1768 131.5 22.1 2.33  24
2020 07 02 17  22 01 10.976   -08 28 23.23  .22356 1.1768 131.5 22.1 2.36  24
2020 07 02 18  22 01 19.077   -08 27 13.54  .22356 1.1768 131.5 22.1 2.40  25